| time (UTC) | temp C | wind direction | speed KPH | gust KPH | rain 1hr cm | rain 24hr cm | rain mn cm | humidity % | barometer mb |
| 20260504150206 | 22 | 292 | 0.0 | 4.8 | 0.00 | 0.00 | 0.00 | 45 | 1015.1 |
| 20260504141158 | 22 | 292 | 1.6 | 3.2 | 0.00 | 0.00 | 0.00 | 42 | 1015.5 |
| 20260504140155 | 22 | 315 | 3.2 | 6.4 | 0.00 | 0.00 | 0.00 | 41 | 1015.5 |
| 20260504130133 | 22 | 292 | 3.2 | 4.8 | 0.00 | 0.00 | 0.00 | 42 | 1016.1 |
| 20260504120113 | 21 | 292 | 3.2 | 4.8 | 0.00 | 0.00 | 0.00 | 42 | 1016.4 |
| 20260504081428 | 21 | 292 | 0.0 | 3.2 | 0.00 | 0.00 | 0.00 | 39 | 1016.8 |
| 20260504080424 | 20 | 315 | 0.0 | 1.6 | 0.00 | 0.00 | 0.00 | 41 | 1016.8 |
| 20260504070351 | 20 | 292 | 0.0 | 1.6 | 0.00 | 0.00 | 0.00 | 42 | 1016.5 |
| 20260504050302 | 14 | 0.0 | 0.0 | 0.00 | 0.00 | 0.00 | 60 | 1016.0 | |
| 20260504045300 | 13 | 0.0 | 0.0 | 0.00 | 0.00 | 0.00 | 59 | 1015.9 | |
| 20260504044255 | 14 | 0.0 | 0.0 | 0.00 | 0.00 | 0.00 | 58 | 1015.5 | |
| 20260504043246 | 13 | 0.0 | 0.0 | 0.00 | 0.00 | 0.00 | 60 | 1015.3 | |
| 20260504042242 | 13 | 0.0 | 0.0 | 0.00 | 0.00 | 0.00 | 60 | 1015.7 | |
| 20260504041233 | 13 | 0.0 | 0.0 | 0.00 | 0.00 | 0.00 | 60 | 1015.5 | |
| 20260504040230 | 13 | 0.0 | 0.0 | 0.00 | 0.00 | 0.00 | 60 | 1015.5 | |
| 20260504035225 | 13 | 0.0 | 0.0 | 0.00 | 0.00 | 0.00 | 61 | 1015.3 | |
| 20260504034222 | 13 | 0.0 | 0.0 | 0.00 | 0.00 | 0.00 | 61 | 1015.5 | |
| 20260504033218 | 13 | 0.0 | 0.0 | 0.00 | 0.00 | 0.00 | 61 | 1015.5 | |
| 20260504032215 | 13 | 0.0 | 0.0 | 0.00 | 0.00 | 0.00 | 62 | 1015.5 | |
| 20260504031211 | 13 | 0.0 | 0.0 | 0.00 | 0.00 | 0.00 | 63 | 1015.4 | |
| 20260504030208 | 13 | 0.0 | 0.0 | 0.00 | 0.00 | 0.00 | 64 | 1015.6 | |
| 20260504025158 | 13 | 0.0 | 0.0 | 0.00 | 0.00 | 0.00 | 64 | 1015.3 | |
| 20260504024155 | 14 | 0.0 | 0.0 | 0.00 | 0.00 | 0.00 | 63 | 1015.4 | |
| 20260504023145 | 14 | 0.0 | 0.0 | 0.00 | 0.00 | 0.00 | 63 | 1015.4 | |
| 20260504022201 | 15 | 0.0 | 0.0 | 0.00 | 0.00 | 0.00 | 63 | 1015.6 | |
| 20260504021137 | 15 | 0.0 | 0.0 | 0.00 | 0.00 | 0.00 | 63 | 1015.5 | |
| 20260504020214 | 15 | 0.0 | 0.0 | 0.00 | 0.00 | 0.00 | 63 | 1015.6 | |
| 20260504015124 | 15 | 0.0 | 0.0 | 0.00 | 0.00 | 0.00 | 61 | 1015.6 | |
| 20260504014121 | 15 | 0.0 | 0.0 | 0.00 | 0.00 | 0.00 | 60 | 1015.7 | |
| 20260504013112 | 16 | 0.0 | 0.0 | 0.00 | 0.00 | 0.00 | 57 | 1015.5 | |
| 20260504012130 | 16 | 0.0 | 0.0 | 0.00 | 0.00 | 0.00 | 56 | 1015.4 | |
| 20260504011059 | 16 | 0.0 | 0.0 | 0.00 | 0.00 | 0.00 | 57 | 1015.6 | |
| 20260504010053 | 16 | 0.0 | 0.0 | 0.00 | 0.00 | 0.00 | 56 | 1015.5 | |
| 20260504005050 | 16 | 315 | 0.0 | 1.6 | 0.00 | 0.00 | 0.00 | 57 | 1015.8 |
| 20260504004046 | 16 | 0.0 | 0.0 | 0.00 | 0.00 | 0.00 | 59 | 1015.8 | |
| 20260504003036 | 16 | 0.0 | 0.0 | 0.00 | 0.00 | 0.00 | 60 | 1016.0 | |
| 20260504002035 | 16 | 315 | 0.0 | 1.6 | 0.00 | 0.00 | 0.00 | 60 | 1015.9 |
| 20260504001023 | 16 | 0.0 | 0.0 | 0.00 | 0.00 | 0.00 | 59 | 1016.4 | |
| 20260504000021 | 16 | 0.0 | 0.0 | 0.00 | 0.00 | 0.00 | 59 | 1016.2 | |
| 20260503235014 | 16 | 0.0 | 0.0 | 0.00 | 0.00 | 0.00 | 58 | 1016.1 | |
| 20260503234011 | 16 | 0.0 | 0.0 | 0.00 | 0.00 | 0.00 | 57 | 1016.3 | |
| 20260503233008 | 16 | 0.0 | 0.0 | 0.00 | 0.00 | 0.00 | 57 | 1016.5 | |
| 20260503232500 | 16 | 0.0 | 0.0 | 0.00 | 0.00 | 0.00 | 57 | 1016.7 | |
| 20260503231455 | 16 | 0.0 | 0.0 | 0.00 | 0.00 | 0.00 | 56 | 1016.5 | |
| 20260503230446 | 16 | 0.0 | 0.0 | 0.00 | 0.00 | 0.00 | 56 | 1016.6 | |
| 20260503225445 | 16 | 0.0 | 0.0 | 0.00 | 0.00 | 0.00 | 55 | 1016.6 | |
| 20260503224438 | 17 | 0.0 | 0.0 | 0.00 | 0.00 | 0.00 | 54 | 1016.6 | |
| 20260503223435 | 17 | 0.0 | 0.0 | 0.00 | 0.00 | 0.00 | 53 | 1016.6 | |
| 20260503222432 | 17 | 0.0 | 0.0 | 0.00 | 0.00 | 0.00 | 53 | 1016.6 | |
| 20260503221423 | 17 | 0.0 | 0.0 | 0.00 | 0.00 | 0.00 | 53 | 1016.7 | |
| 20260503220419 | 17 | 0.0 | 0.0 | 0.00 | 0.00 | 0.00 | 53 | 1016.5 | |
| 20260503215414 | 17 | 0.0 | 0.0 | 0.00 | 0.00 | 0.00 | 51 | 1016.4 | |
| 20260503214430 | 17 | 0.0 | 0.0 | 0.00 | 0.00 | 0.00 | 50 | 1016.3 | |
| 20260503213408 | 17 | 0.0 | 0.0 | 0.00 | 0.00 | 0.00 | 50 | 1016.3 | |
| 20260503212405 | 17 | 0.0 | 0.0 | 0.00 | 0.00 | 0.00 | 49 | 1016.3 | |
| 20260503211401 | 18 | 0.0 | 0.0 | 0.00 | 0.00 | 0.00 | 49 | 1016.2 | |
| 20260503210358 | 18 | 0.0 | 0.0 | 0.00 | 0.00 | 0.00 | 49 | 1016.2 | |
| 20260503205355 | 18 | 0.0 | 0.0 | 0.00 | 0.00 | 0.00 | 48 | 1016.1 | |
| 20260503204351 | 18 | 0.0 | 0.0 | 0.00 | 0.00 | 0.00 | 47 | 1016.3 | |
| 20260503203347 | 18 | 0.0 | 0.0 | 0.00 | 0.00 | 0.00 | 47 | 1016.2 | |
| 20260503202344 | 18 | 0.0 | 0.0 | 0.00 | 0.00 | 0.00 | 46 | 1016.2 | |
| 20260503201334 | 18 | 0.0 | 0.0 | 0.00 | 0.00 | 0.00 | 45 | 1016.1 | |
| 20260503200324 | 18 | 0.0 | 0.0 | 0.00 | 0.00 | 0.00 | 44 | 1016.0 | |
| 20260503195321 | 18 | 0.0 | 0.0 | 0.00 | 0.00 | 0.00 | 43 | 1016.0 | |
| 20260503194317 | 19 | 0.0 | 0.0 | 0.00 | 0.00 | 0.00 | 44 | 1015.7 | |
| 20260503193313 | 19 | 0.0 | 0.0 | 0.00 | 0.00 | 0.00 | 43 | 1015.8 | |
| 20260503192310 | 20 | 0.0 | 0.0 | 0.00 | 0.00 | 0.00 | 44 | 1015.6 | |
| 20260503191306 | 20 | 0.0 | 0.0 | 0.00 | 0.00 | 0.00 | 43 | 1015.3 | |
| 20260503190258 | 20 | 315 | 0.0 | 1.6 | 0.00 | 0.00 | 0.00 | 42 | 1015.7 |
| 20260503185253 | 20 | 315 | 1.6 | 3.2 | 0.00 | 0.00 | 0.00 | 43 | 1015.3 |
| 20260503184249 | 20 | 315 | 1.6 | 4.8 | 0.00 | 0.00 | 0.00 | 43 | 1015.4 |
| 20260503183246 | 20 | 315 | 1.6 | 3.2 | 0.00 | 0.00 | 0.00 | 41 | 1015.3 |
| 20260503182237 | 21 | 315 | 1.6 | 3.2 | 0.00 | 0.00 | 0.00 | 39 | 1015.2 |
| 20260503181234 | 21 | 0.0 | 0.0 | 0.00 | 0.00 | 0.00 | 38 | 1015.1 | |
| 20260503180224 | 21 | 0.0 | 1.6 | 0.00 | 0.00 | 0.00 | 38 | 1015.3 | |
| 20260503175219 | 21 | 0.0 | 1.6 | 0.00 | 0.00 | 0.00 | 39 | 1014.9 | |
| 20260503174214 | 21 | 292 | 0.0 | 3.2 | 0.00 | 0.00 | 0.00 | 41 | 1015.3 |
| 20260503173211 | 22 | 0.0 | 0.0 | 0.00 | 0.00 | 0.00 | 40 | 1015.3 | |
| 20260503172208 | 22 | 0.0 | 0.0 | 0.00 | 0.00 | 0.00 | 40 | 1015.1 | |
| 20260503171205 | 22 | 0.0 | 0.0 | 0.00 | 0.00 | 0.00 | 40 | 1015.1 | |
| 20260503170201 | 22 | 0.0 | 0.0 | 0.00 | 0.00 | 0.00 | 39 | 1015.1 | |
| 20260503160133 | 23 | 315 | 1.6 | 3.2 | 0.00 | 0.00 | 0.00 | 39 | 1015.6 |